Temp
9 9 8 8 7 8 8 8 9 10 10 9 9 8 6 7 7 5 4 3 3 7
9 9 8 8 7 7 7 7 7 7 7 8 7 7 7 6 5 4 4 5 1 3
9 8 8 8 7 6 7 7 7 7 7 6 6 7 7 6 5 4 3 3 2 1
9 9 8 8 7 7 7 7 6 5 5 5 5 4 5 4 4 3 2 2 2 1
9 9 9 8 7 7 6 6 6 6 5 4 4 4 4 4 4 4 3 2 1 0
9 9 9 9 8 7 7 7 7 6 5 4 4 3 4 3 3 3 2 1 0 -0
8 8 8 8 8 7 7 7 6 6 5 4 4 3 3 3 2 2 2 2 1 0
8 8 7 7 7 7 7 7 6 6 5 5 4 4 3 3 1 1 1 1 1 0
7 7 7 7 7 7 7 7 7 5 5 6 5 4 4 3 2 1 0 -0 -0 -0
6 6 7 6 6 6 6 6 7 7 5 5 5 3 3 3 2 2 1 -0 -1 -1
5 5 6 6 6 6 6 6 6 6 5 4 4 4 2 2 2 2 1 0 -0 -0
5 5 5 6 6 5 5 5 6 6 5 4 4 4 3 2 1 1 1 -0 -0 -1
4 4 4 5 5 5 5 5 5 5 5 3 3 3 3 2 1 0 0 -0 -1 -1
4 4 4 4 5 4 4 4 5 4 4 3 3 2 3 2 0 0 -0 -0 -1 -2
Height
1447 1443 1438 1433 1428 1425 1420 1417 1415 1411 1410 1419 1420 1417 1419 1416 1411 1412 1433 1443 1464 1448
1444 1441 1437 1432 1427 1422 1419 1415 1411 1407 1404 1399 1411 1407 1403 1411 1407 1411 1420 1421 1440 1451
1440 1438 1434 1431 1428 1423 1417 1415 1410 1406 1401 1402 1402 1397 1397 1403 1401 1405 1407 1407 1421 1440
1434 1433 1430 1429 1426 1423 1417 1413 1408 1405 1400 1398 1397 1395 1388 1393 1395 1398 1402 1407 1411 1422
1431 1428 1425 1424 1423 1420 1417 1409 1407 1404 1398 1397 1393 1390 1390 1388 1388 1393 1397 1406 1410 1416
1426 1425 1419 1419 1418 1415 1411 1405 1403 1400 1397 1393 1388 1389 1388 1388 1385 1392 1393 1402 1405 1411
1422 1419 1417 1413 1412 1410 1407 1403 1398 1395 1394 1390 1388 1389 1388 1388 1384 1386 1397 1400 1402 1409
1418 1416 1413 1409 1409 1407 1402 1399 1395 1392 1390 1390 1387 1386 1387 1385 1384 1390 1399 1401 1403 1408
1416 1412 1410 1407 1405 1403 1399 1396 1392 1389 1388 1385 1384 1384 1383 1384 1383 1390 1396 1399 1403 1407
1411 1408 1405 1402 1400 1397 1395 1393 1389 1385 1383 1382 1382 1379 1380 1381 1382 1390 1394 1397 1402 1407
1404 1401 1399 1397 1394 1392 1390 1388 1386 1381 1379 1377 1378 1377 1377 1377 1382 1386 1392 1397 1402 1404
1396 1393 1391 1389 1387 1386 1384 1382 1380 1376 1375 1374 1373 1374 1374 1377 1380 1383 1389 1394 1399 1402
1387 1384 1382 1381 1379 1378 1377 1376 1374 1372 1371 1369 1369 1370 1371 1373 1377 1380 1383 1391 1396 1400
1378 1376 1373 1371 1370 1370 1369 1368 1367 1366 1365 1365 1366 1366 1368 1370 1374 1376 1379 1386 1392 1397
Wind_Speed
23 24 24 26 23 20 19 20 24 29 33 40 51 48 48 52 55 56 59 48 39 56
18 20 23 23 21 18 17 16 15 16 20 26 37 43 44 49 48 51 60 61 50 48
17 17 18 20 20 18 16 16 18 20 19 21 26 27 29 39 42 50 56 62 57 47
18 19 18 17 17 16 15 18 17 16 12 13 17 22 22 29 33 38 47 48 52 46
16 17 17 20 21 23 23 20 15 14 14 10 12 15 22 25 29 29 35 40 43 41
15 19 19 22 21 24 24 20 21 19 10 7 11 10 14 15 18 27 31 35 35 36
21 22 21 19 23 24 24 21 17 14 16 6 12 10 17 16 17 18 23 29 31 33
22 24 24 19 20 20 20 19 16 14 12 14 7 11 12 16 12 19 24 25 26 27
23 24 23 20 20 22 19 20 20 16 15 13 19 19 18 11 22 21 20 18 25 24
26 25 24 26 26 24 24 23 20 21 16 16 14 18 19 16 19 21 21 21 24 28
33 29 27 28 27 26 23 22 20 19 18 15 14 14 15 17 19 21 21 19 18 16
32 34 31 29 28 26 24 22 21 20 17 14 15 18 15 16 18 22 23 18 18 17
32 33 34 32 30 29 23 23 22 21 18 15 17 16 13 14 20 24 26 23 20 18
28 29 30 29 29 29 25 24 23 22 17 16 18 18 19 16 20 25 27 27 27 23
Wind_Direction
353 355 349 345 330 321 304 291 275 261 258 249 250 246 240 233 231 222 219 216 229 214
336 347 350 343 341 331 319 308 301 280 266 257 257 249 246 241 226 217 220 217 218 219
312 323 340 345 341 336 343 329 312 290 275 275 264 254 256 251 236 227 218 212 208 216
302 304 309 318 328 326 337 349 353 308 305 299 285 267 251 237 231 215 212 206 208 212
310 309 304 297 303 309 310 318 321 336 314 298 298 277 240 219 214 213 210 213 209 207
328 325 323 307 291 297 304 305 316 299 308 344 306 288 238 239 235 221 209 211 208 195
317 320 325 317 300 294 301 299 295 299 300 275 312 284 241 236 213 209 208 203 206 205
307 308 314 318 312 310 304 301 299 293 288 277 252 272 266 218 195 202 202 199 205 215
311 305 302 299 304 303 305 311 311 293 275 276 276 242 244 235 209 202 209 208 206 207
304 299 297 297 298 302 297 293 295 296 285 269 270 271 245 225 225 217 210 208 196 201
300 297 289 290 293 295 292 291 297 298 292 267 253 274 265 236 219 215 210 215 213 200
297 293 290 285 284 287 288 287 296 298 288 264 257 249 226 233 212 209 203 203 202 199
293 287 287 282 283 279 276 282 286 290 285 259 257 244 238 228 214 204 199 199 195 190
296 293 290 274 275 274 276 279 283 282 271 253 247 234 233 230 208 207 195 193 186 185